Flag for Finland Weather past 2 weeks in Kemi, Finland

Now
34 °F

Low clouds.


Feels Like: 26 °F
Forecast: 30 / 35 °F
Wind: 9 mph from Southeast

Location: Kemi Airport

Current Time: Mar 3, 2015 at 5:42:07 AM

Latest Report: Mar 3, 2015 at 4:50 AM


Visibility: N/A

Pressure: 29.47 "Hg

Humidity: 100%

Dew point: 34 °F

Location of KemiLocation

Historic Weather in Kemi — Graph

°F

Kemi temperature yesterday

Maximum temperature yesterday: 36 °F (at 12:55 PM)
Minimum temperature yesterday: 30 °F (at 1:20 AM)
Average temperature yesterday: 34 °F

Past Weeks' High & Low Weather Summary

 TemperatureHumidityPressure
High37 °F (Feb 19, 9:50 PM)100% (Feb 17, 5:20 PM)30.42 "Hg (Feb 17, 5:20 PM)
Low18 °F (Feb 23, 7:20 AM)56% (Feb 18, 2:20 PM)29.03 "Hg (Feb 22, 1:50 PM)
Average32 °F91%29.56 "Hg
* Reported Feb 16 4:20 AM — Mar 3 4:20 AM, Kemi, Weather by CustomWeather, © 2015

Note: Actual official high and low records may vary slightly from our data, if they occured in-between our weather recording intervals... More about our weather records

Advertising

Kemi weather history for previous 24 hours

 ConditionsComfort  
Time TempWeatherWind HumidityBarometerVisibility
4:20 AM
Tue, Mar 3
34 °FLow clouds.9 mph93%29.47 "HgN/A
3:50 AM34 °FLow clouds.9 mph93%29.47 "HgN/A
3:20 AM34 °FLow clouds.10 mph93%29.47 "HgN/A
2:50 AM34 °FLow clouds.9 mph93%29.47 "HgN/A
2:20 AM34 °FLow clouds.9 mph93%29.47 "HgN/A
1:50 AM34 °FLow clouds.12 mph93%29.45 "HgN/A
1:20 AM34 °FLow clouds.13 mph100%29.45 "HgN/A
12:50 AM34 °FLow clouds.12 mph100%29.45 "HgN/A
12:20 AM34 °FLow clouds.14 mph100%29.45 "HgN/A
11:50 PM
Mon, Mar 2
34 °FLow clouds.14 mph100%29.45 "HgN/A
11:20 PM34 °FMostly cloudy.14 mph100%29.45 "HgN/A
10:50 PM34 °FDrizzle. Low clouds.14 mph100%29.45 "Hg5 mi
10:20 PM34 °FMixture of precip. Low clouds.15 mph100%29.45 "HgN/A
9:50 PM34 °FMixture of precip. Low clouds.14 mph100%29.42 "HgN/A
9:20 PM34 °FLow clouds.13 mph100%29.42 "HgN/A
8:50 PM34 °FLow clouds.15 mph100%29.42 "HgN/A
8:20 PM36 °FOvercast.14 mph93%29.42 "HgN/A
7:50 PM36 °FOvercast.15 mph87%29.42 "HgN/A
7:20 PM36 °FMostly cloudy.16 mph93%29.39 "HgN/A
6:50 PM34 °FLight rain. Low clouds.16 mph100%29.39 "HgN/A
6:20 PM34 °FLight rain. Low clouds.16 mph100%29.39 "Hg4 mi
5:50 PM34 °FLight rain. Low clouds.14 mph100%29.39 "Hg4 mi
5:20 PM34 °FLight rain. Overcast.15 mph100%29.39 "Hg5 mi
4:50 PM36 °FLight rain. Overcast.15 mph87%29.39 "HgN/A
4:20 PM34 °FSleet. Overcast.15 mph100%29.39 "Hg6 mi
3:50 PM34 °FSleet. Overcast.17 mph93%29.39 "Hg4 mi
3:20 PM34 °FLight rain. Overcast.15 mph93%29.39 "Hg3 mi
2:50 PM34 °FLight rain. Overcast.16 mph93%29.39 "Hg3 mi
2:20 PM34 °FLight rain. Overcast.17 mph93%29.36 "Hg5 mi
1:50 PM34 °FPartly sunny.16 mph93%29.39 "HgN/A
1:20 PM36 °FLight rain. Overcast.18 mph87%29.39 "Hg4 mi
12:55 PM36 °FLight rain. Overcast.18 mph87%29.39 "HgN/A
12:20 PM34 °FLight rain. Overcast.15 mph93%29.39 "Hg3 mi
11:50 AM34 °FLight rain. Low clouds.17 mph93%29.39 "Hg2 mi
11:20 AM34 °FLight rain. Low clouds.16 mph93%29.39 "Hg3 mi
10:50 AM32 °FLight rain. More clouds than sun.16 mph100%29.39 "Hg3 mi
10:20 AM32 °FLight rain. More clouds than sun.16 mph100%29.39 "Hg1 mi
9:50 AM32 °FLight rain. Overcast.18 mph100%29.39 "Hg1 mi
9:20 AM32 °FLight rain. Overcast.18 mph93%29.39 "Hg1 mi
8:50 AM34 °FLight rain. Overcast.18 mph87%29.39 "Hg2 mi
8:20 AM34 °FLight rain. Overcast.17 mph87%29.39 "Hg2 mi
7:50 AM34 °FLight rain. Overcast.18 mph81%29.39 "HgN/A
7:20 AM34 °FLight rain. Overcast.20 mph87%29.36 "HgN/A
6:50 AM34 °FOvercast.20 mph81%29.36 "HgN/A
6:20 AM34 °FOvercast.17 mph87%29.39 "HgN/A
5:50 AM34 °FOvercast.15 mph81%29.39 "HgN/A
5:20 AM34 °FPassing clouds.16 mph81%29.39 "HgN/A
Weather by CustomWeather, © 2015

See weather overviewHow to use our weather pages